Iowa Falls, IA

12:58 AM CDT on September 29, 2016 (GMT -0500)
Iowa Falls Municipal

Weather History for KIFA - March, 2014

Change the Weather History Date:

Friday, March 7, 2014

  Actual Average Record
Temperature  
Mean Temperature 31 °F -  
Max Temperature 37 °F 39 °F 73 °F (1987)
Min Temperature 25 °F 19 °F -9 °F (1960)
Degree Days  
Heating Degree Days 34    
Moisture  
Dew Point 26 °F    
Average Humidity 84    
Maximum Humidity 90    
Minimum Humidity 80    
Precipitation  
Precipitation 0.00 in - - ()
Sea Level Pressure  
Sea Level Pressure 29.91 in    
Wind  
Wind Speed 16 mph (West)    
Max Wind Speed 24 mph    
Max Gust Speed 30 mph    
Visibility 6 miles    
Events      
Averages and records for this station are not official NWS values.
T = Trace of Precipitation, MM = Missing Value Source: NWS Daily Summary

Daily Weather History Graph

Daily Weather History Graph

Search for Another Location

Airport or City:

Trip Planner

Search our weather history database for the weather conditions in past years. The results will help you decide how hot, cold, wet, or windy it might be!

Date:

Astronomy

Mar. 07, 2014 Rise Set
Actual Time 6:38 AM CST 6:10 PM CST
Civil Twilight 6:10 AM CST 6:38 PM CST
Nautical Twilight 5:38 AM CST 7:10 PM CST
Astronomical Twilight 5:05 AM CST 7:43 PM CST
Moon 10:24 AM CST (3/7) 12:23 AM CST (3/7)
Length of Visible Light 12h 27m
Length of Day
11h 31m
Waxing Crescent, 42% of the Moon is Illuminated
Mar 7
Waxing Crescent
Mar 8
First Quarter
Mar 16
Full
Mar 23
Last Quarter
Mar 30
New

Hourly Weather History & Observations

Time (CST) Temp. Windchill Dew Point Humidity Pressure Visibility Wind Dir Wind Speed Gust Speed Precip Events Conditions
12:15 AM 28.8 °F 16.2 °F 24.4 °F 84% 29.87 in 5.0 mi SSE 18.4 mph - N/A   Haze
12:35 AM 28.8 °F 17.0 °F 24.4 °F 84% 29.86 in 5.0 mi SSE 16.1 mph - N/A   Haze
12:55 AM 28.8 °F 17.5 °F 24.6 °F 84% 29.87 in 5.0 mi SSE 15.0 mph - N/A   Haze
1:15 AM 29.3 °F 17.3 °F 24.8 °F 83% 29.86 in 5.0 mi SSE 17.3 mph - N/A   Clear
1:35 AM 29.3 °F 18.2 °F 24.8 °F 83% 29.86 in 5.0 mi SSE 15.0 mph - N/A   Clear
1:55 AM 29.1 °F 17.5 °F 24.6 °F 83% 29.85 in 7.0 mi SSE 16.1 mph - N/A   Clear
2:15 AM 29.8 °F 18.9 °F 24.8 °F 81% 29.85 in 7.0 mi SSE 15.0 mph - N/A   Clear
2:35 AM 29.7 °F 18.2 °F 24.6 °F 81% 29.83 in 5.0 mi SSE 16.1 mph - N/A   Haze
2:55 AM 29.3 °F 18.2 °F 24.4 °F 82% 29.82 in 5.0 mi SSE 15.0 mph 20.7 mph N/A   Haze
3:15 AM 29.5 °F 18.4 °F 24.6 °F 82% 29.82 in 7.0 mi SSE 15.0 mph - N/A   Clear
3:35 AM 29.7 °F 18.2 °F 24.6 °F 81% 29.81 in 7.0 mi SSE 16.1 mph - N/A   Clear
3:55 AM 30.0 °F 18.7 °F 24.8 °F 81% 29.80 in 7.0 mi SSE 16.1 mph - N/A   Clear
4:15 AM 31.8 °F 19.9 °F 26.2 °F 80% 29.79 in 7.0 mi South 19.6 mph - N/A   Clear
4:35 AM 32.0 °F 20.1 °F 26.6 °F 80% 29.79 in 5.0 mi South 19.6 mph - N/A   Haze
4:55 AM 32.2 °F 20.7 °F 27.1 °F 82% 29.78 in 7.0 mi South 18.4 mph - N/A   Clear
5:15 AM 32.9 °F 21.3 °F 27.7 °F 81% 29.78 in 5.0 mi South 19.6 mph - N/A   Haze
5:35 AM 33.3 °F 22.1 °F 28.0 °F 81% 29.78 in 5.0 mi South 18.4 mph - N/A   Haze
5:55 AM 32.5 °F 22.3 °F 27.5 °F 82% 29.79 in 7.0 mi South 15.0 mph - N/A   Clear
6:15 AM 32.0 °F 23.6 °F 27.1 °F 82% 29.79 in 7.0 mi South 10.4 mph - N/A   Clear
6:35 AM 30.9 °F 22.2 °F 26.6 °F 84% 29.79 in 5.0 mi South 10.4 mph - N/A   Haze
6:55 AM 30.0 °F 21.7 °F 26.1 °F 85% 29.79 in 7.0 mi South 9.2 mph - N/A   Clear
7:15 AM 29.7 °F 22.0 °F 25.7 °F 85% 29.81 in 4.0 mi South 8.1 mph - N/A   Clear
7:35 AM 30.0 °F 21.1 °F 26.2 °F 86% 29.81 in 4.0 mi South 10.4 mph - N/A   Clear
7:55 AM 30.9 °F 22.2 °F 26.8 °F 85% 29.81 in 4.0 mi South 10.4 mph - N/A   Scattered Clouds
8:15 AM 32.0 °F 23.0 °F 27.9 °F 85% 29.81 in 5.0 mi South 11.5 mph - N/A   Scattered Clouds
8:35 AM 32.0 °F 23.6 °F 28.2 °F 86% 29.82 in 4.0 mi South 10.4 mph - N/A   Mostly Cloudy
8:55 AM 32.5 °F 24.2 °F 29.1 °F 87% 29.82 in 4.0 mi South 10.4 mph - N/A   Overcast
9:15 AM 33.3 °F 25.7 °F 29.7 °F 87% 29.83 in 3.0 mi SSW 9.2 mph - N/A   Overcast
9:35 AM 34.7 °F 27.5 °F 30.4 °F 84% 29.83 in 3.0 mi SW 9.2 mph - N/A   Haze
9:55 AM 35.6 °F 29.2 °F 31.3 °F 84% 29.84 in 4.0 mi SW 8.1 mph - N/A   Haze
10:15 AM 36.9 °F 29.1 °F 31.8 °F 82% 29.84 in 5.0 mi SW 11.5 mph - N/A   Haze
10:35 AM 36.5 °F 29.2 °F 31.6 °F 83% 29.85 in 5.0 mi WSW 10.4 mph - N/A   Haze
10:55 AM 36.9 °F 28.7 °F 32.0 °F 83% 29.85 in 4.0 mi West 12.7 mph - N/A   Haze
11:15 AM 37.2 °F 30.0 °F 32.0 °F 81% 29.85 in 4.0 mi West 10.4 mph - N/A   Haze
11:35 AM 37.8 °F 30.2 °F 32.0 °F 80% 29.86 in 4.0 mi WNW 11.5 mph - N/A   Haze
11:55 AM 36.7 °F 26.9 °F 31.5 °F 81% 29.87 in 4.0 mi WNW 17.3 mph - N/A   Haze
12:15 PM 35.6 °F 25.5 °F 31.1 °F 84% 29.88 in 4.0 mi NW 17.3 mph - N/A   Haze
12:35 PM 35.6 °F 25.5 °F 30.7 °F 82% 29.88 in 4.0 mi NNW 17.3 mph 24.2 mph N/A   Haze
12:55 PM 35.4 °F 25.3 °F 30.7 °F 83% 29.88 in 3.0 mi NNW 17.3 mph - N/A   Overcast
1:15 PM 35.6 °F 26.2 °F 30.9 °F 83% 29.87 in 3.0 mi NNW 15.0 mph - N/A   Haze
1:35 PM 35.4 °F 26.4 °F 31.1 °F 84% 29.88 in 3.0 mi NNW 13.8 mph - N/A   Overcast
1:55 PM 35.2 °F 26.2 °F 31.1 °F 85% 29.89 in 3.0 mi NNW 13.8 mph - N/A   Overcast
2:15 PM 35.1 °F 24.8 °F 31.1 °F 85% 29.89 in 3.0 mi NW 17.3 mph - N/A   Overcast
2:35 PM 33.1 °F 22.2 °F 30.2 °F 89% 29.91 in 2.0 mi NW 17.3 mph - N/A   Overcast
2:55 PM 32.0 °F 20.5 °F 29.3 °F 90% 29.91 in 1.8 mi NW 18.4 mph - N/A   Overcast
3:15 PM 32.0 °F 19.8 °F 28.9 °F 88% 29.93 in 2.5 mi NW 20.7 mph - N/A   Overcast
3:35 PM 32.0 °F 19.5 °F 28.2 °F 86% 29.94 in 4.0 mi NW 21.9 mph - N/A   Overcast
3:55 PM 31.6 °F 19.0 °F 27.5 °F 85% 29.94 in 5.0 mi NW 21.9 mph - N/A   Haze
4:15 PM 31.1 °F 17.7 °F 27.3 °F 86% 29.94 in 5.0 mi NNW 24.2 mph 29.9 mph N/A   Overcast
4:35 PM 29.8 °F 16.0 °F 25.7 °F 85% 29.93 in 4.0 mi NNW 24.2 mph - N/A   Overcast
4:55 PM 29.3 °F 16.2 °F 25.2 °F 85% 29.95 in 5.0 mi NNW 20.7 mph 27.6 mph N/A   Overcast
5:15 PM 28.8 °F 15.5 °F 24.8 °F 85% 29.99 in 7.0 mi NW 20.7 mph 24.2 mph N/A   Overcast
5:35 PM 28.2 °F 14.5 °F 24.4 °F 86% 30.00 in 7.0 mi NW 21.9 mph - N/A   Overcast
5:55 PM 27.5 °F 14.6 °F 23.5 °F 85% 30.00 in 7.0 mi NNW 18.4 mph - N/A   Overcast
6:15 PM 27.0 °F 13.9 °F 23.0 °F 85% 30.01 in 10.0 mi NNW 18.4 mph - N/A   Overcast
6:35 PM 26.6 °F 13.1 °F 23.0 °F 86% 30.02 in 10.0 mi NW 19.6 mph - N/A   Overcast
6:55 PM 26.4 °F 13.2 °F 22.5 °F 85% 30.03 in 10.0 mi NNW 18.4 mph 26.5 mph N/A   Overcast
7:15 PM 26.2 °F 12.6 °F 22.1 °F 84% 30.04 in 10.0 mi NNW 19.6 mph 23.0 mph N/A   Overcast
7:35 PM 26.2 °F 13.0 °F 22.1 °F 84% 30.04 in 10.0 mi NNW 18.4 mph 21.9 mph N/A   Overcast
7:55 PM 26.1 °F 12.7 °F 22.1 °F 85% 30.05 in 10.0 mi NNW 18.4 mph 23.0 mph N/A   Overcast
8:15 PM 25.7 °F 12.7 °F 21.6 °F 84% 30.06 in 10.0 mi NNW 17.3 mph 24.2 mph N/A   Overcast
8:35 PM 25.9 °F 12.9 °F 21.7 °F 84% 30.06 in 10.0 mi NNW 17.3 mph - N/A   Overcast
8:55 PM 25.7 °F 13.1 °F 21.9 °F 86% 30.08 in 10.0 mi NNW 16.1 mph 23.0 mph N/A   Overcast
9:15 PM 25.7 °F 11.9 °F 21.7 °F 85% 30.08 in 10.0 mi NNW 19.6 mph 23.0 mph N/A   Overcast
9:35 PM 25.7 °F 12.3 °F 21.2 °F 83% 30.09 in 10.0 mi NNW 18.4 mph 25.3 mph N/A   Overcast
9:55 PM 25.7 °F 12.3 °F 21.2 °F 83% 30.08 in 10.0 mi NNW 18.4 mph 24.2 mph N/A   Overcast
10:15 PM 25.5 °F 12.9 °F 21.0 °F 83% 30.09 in 10.0 mi NNW 16.1 mph - N/A   Overcast
10:35 PM 25.3 °F 12.2 °F 21.0 °F 84% 30.09 in 10.0 mi NNW 17.3 mph - N/A   Overcast
10:55 PM 25.3 °F 11.8 °F 21.0 °F 84% 30.09 in 10.0 mi NNW 18.4 mph - N/A   Overcast
11:15 PM 25.3 °F 12.6 °F 21.0 °F 84% 30.11 in 10.0 mi NNW 16.1 mph - N/A   Overcast
11:35 PM 25.5 °F 13.8 °F 21.2 °F 84% 30.11 in 10.0 mi NNW 13.8 mph - N/A   Overcast
11:55 PM 25.3 °F 13.1 °F 21.2 °F 84% 30.11 in 10.0 mi NNW 15.0 mph - N/A   Overcast